EWG1452 EGPH-EDDH

Flight info

Callsign EWG1452
Flight time 1h 30m
Altitude 37000
Route TLA DCT NATEB DCT RENEQ DCT GASTU DCT RIBSO RIBSO3S
Aircraft A320/M-SDE3FGHIRWY/LB1

Departure

Time 2026-04-24 04:29
Airport Edinburgh Airport (EGPH)

Arrival

Time 2026-04-24 06:00
Airport Hamburg Helmut Schmidt Airport (EDDH)
Time Latitude Longitude Altitude Speed Heading
2026-04-24 04:02 55.94837 -3.36638 106 ft 0 kts 89°
2026-04-24 04:20 55.94837 -3.36657 105 ft 4 kts 84°
2026-04-24 04:20 55.94830 -3.36698 104 ft 4 kts 39°
2026-04-24 04:20 55.94825 -3.36711 101 ft 3 kts 297°
2026-04-24 04:20 55.94822 -3.36700 101 ft 0 kts 296°
2026-04-24 04:22 55.94831 -3.36736 105 ft 4 kts 296°
2026-04-24 04:23 55.94847 -3.36767 105 ft 4 kts 325°
2026-04-24 04:23 55.94883 -3.36790 105 ft 5 kts 337°
2026-04-24 04:23 55.94908 -3.36816 105 ft 4 kts 328°
2026-04-24 04:23 55.94921 -3.36900 104 ft 12 kts 252°
2026-04-24 04:24 55.94880 -3.37032 105 ft 11 kts 239°
2026-04-24 04:24 55.94845 -3.37139 105 ft 9 kts 238°
2026-04-24 04:24 55.94812 -3.37233 105 ft 8 kts 238°
2026-04-24 04:24 55.94782 -3.37321 106 ft 11 kts 238°
2026-04-24 04:25 55.94731 -3.37468 110 ft 17 kts 238°
2026-04-24 04:25 55.94672 -3.37642 112 ft 15 kts 240°
2026-04-24 04:25 55.94622 -3.37791 113 ft 13 kts 239°
2026-04-24 04:25 55.94575 -3.37931 113 ft 12 kts 238°
2026-04-24 04:26 55.94529 -3.38064 112 ft 15 kts 238°
2026-04-24 04:26 55.94466 -3.38251 111 ft 18 kts 239°
2026-04-24 04:26 55.94402 -3.38438 114 ft 18 kts 239°
2026-04-24 04:26 55.94343 -3.38611 116 ft 13 kts 238°
2026-04-24 04:27 55.94301 -3.38736 116 ft 11 kts 239°
2026-04-24 04:27 55.94279 -3.38827 120 ft 6 kts 269°
2026-04-24 04:27 55.94297 -3.38876 116 ft 7 kts 322°
2026-04-24 04:27 55.94349 -3.38929 116 ft 9 kts 330°
2026-04-24 04:28 55.94408 -3.38958 115 ft 9 kts 15°
2026-04-24 04:28 55.94432 -3.38912 118 ft 0 kts 60°
2026-04-24 04:29 55.94557 -3.38544 115 ft 75 kts 58°
2026-04-24 04:29 55.94942 -3.37403 107 ft 137 kts 59°
2026-04-24 04:29 55.95466 -3.35802 494 ft 154 kts 60°
2026-04-24 04:29 55.96026 -3.34138 1194 ft 158 kts 57°
2026-04-24 04:30 55.96785 -3.32593 1665 ft 176 kts 43°
2026-04-24 04:30 55.97765 -3.31034 1978 ft 201 kts 41°
2026-04-24 04:30 55.98899 -3.29312 2388 ft 226 kts 40°
2026-04-24 04:30 56.00162 -3.27387 2858 ft 251 kts 41°
2026-04-24 04:31 56.01520 -3.25288 3576 ft 263 kts 41°
2026-04-24 04:31 56.02909 -3.23112 4468 ft 269 kts 41°
2026-04-24 04:31 56.04294 -3.20823 5387 ft 274 kts 49°
2026-04-24 04:31 56.05170 -3.17786 5843 ft 279 kts 80°
2026-04-24 04:32 56.05201 -3.14376 5985 ft 278 kts 96°
2026-04-24 04:32 56.04870 -3.10987 6009 ft 276 kts 113°
2026-04-24 04:32 56.03863 -3.08102 6012 ft 274 kts 134°
2026-04-24 04:32 56.02413 -3.05926 6015 ft 273 kts 146°
2026-04-24 04:33 56.00886 -3.03908 6014 ft 273 kts 144°
2026-04-24 04:33 55.99368 -3.01868 6014 ft 273 kts 146°
2026-04-24 04:33 55.97753 -3.00122 6015 ft 271 kts 158°
2026-04-24 04:33 55.95939 -2.99371 6012 ft 268 kts 182°
2026-04-24 04:34 55.94134 -3.00165 6571 ft 270 kts 204°
2026-04-24 04:34 55.92428 -3.01484 7489 ft 272 kts 205°
2026-04-24 04:34 55.90690 -3.02875 8354 ft 276 kts 206°
2026-04-24 04:34 55.88925 -3.04303 9207 ft 281 kts 206°
2026-04-24 04:35 55.87130 -3.05756 10067 ft 286 kts 206°
2026-04-24 04:35 55.85294 -3.07238 10702 ft 298 kts 206°
2026-04-24 04:35 55.83329 -3.08821 11007 ft 321 kts 206°
2026-04-24 04:35 55.81257 -3.10483 11588 ft 331 kts 206°
2026-04-24 04:36 55.79140 -3.12176 12342 ft 336 kts 205°
2026-04-24 04:36 55.76997 -3.13883 13111 ft 340 kts 205°
2026-04-24 04:36 55.74825 -3.15607 13867 ft 344 kts 205°
2026-04-24 04:36 55.72627 -3.17349 14578 ft 347 kts 205°
2026-04-24 04:37 55.70401 -3.18905 15231 ft 352 kts 194°
2026-04-24 04:37 55.67950 -3.19173 15862 ft 357 kts 173°
2026-04-24 04:37 55.65543 -3.17990 16524 ft 361 kts 160°
2026-04-24 04:37 55.63181 -3.16431 17199 ft 364 kts 160°
2026-04-24 04:38 55.60802 -3.14844 17870 ft 367 kts 160°
2026-04-24 04:38 55.58400 -3.13248 18535 ft 370 kts 160°
2026-04-24 04:38 55.55978 -3.11645 19122 ft 373 kts 160°
2026-04-24 04:38 55.53535 -3.10037 19686 ft 376 kts 160°
2026-04-24 04:39 55.51071 -3.08430 20236 ft 379 kts 160°
2026-04-24 04:39 55.48588 -3.06825 20796 ft 382 kts 160°
2026-04-24 04:39 55.46112 -3.05249 21318 ft 385 kts 160°
2026-04-24 04:39 55.43607 -3.03533 21847 ft 387 kts 152°
2026-04-24 04:40 55.41396 -3.00843 22356 ft 389 kts 136°
2026-04-24 04:40 55.39657 -2.97212 22876 ft 390 kts 121°
2026-04-24 04:40 55.38397 -2.92983 23402 ft 391 kts 115°
2026-04-24 04:40 55.37218 -2.88659 23933 ft 393 kts 115°
2026-04-24 04:41 55.36035 -2.84312 24382 ft 396 kts 114°
2026-04-24 04:41 55.34842 -2.79937 24793 ft 398 kts 115°
2026-04-24 04:41 55.33636 -2.75538 25212 ft 401 kts 114°
2026-04-24 04:41 55.32435 -2.71181 25598 ft 403 kts 114°
2026-04-24 04:42 55.31208 -2.66737 26004 ft 406 kts 114°
2026-04-24 04:42 55.29973 -2.62271 26404 ft 408 kts 114°
2026-04-24 04:42 55.28731 -2.57782 26785 ft 410 kts 114°
2026-04-24 04:42 55.27480 -2.53270 27171 ft 413 kts 114°
2026-04-24 04:43 55.26217 -2.48727 27561 ft 415 kts 114°
2026-04-24 04:43 55.24945 -2.44165 27937 ft 418 kts 114°
2026-04-24 04:43 55.23663 -2.39575 28318 ft 420 kts 114°
2026-04-24 04:43 55.22374 -2.34971 28698 ft 422 kts 114°
2026-04-24 04:44 55.21091 -2.30407 29064 ft 425 kts 114°
2026-04-24 04:44 55.19781 -2.25755 29419 ft 427 kts 114°
2026-04-24 04:44 55.18462 -2.21084 29778 ft 430 kts 114°
2026-04-24 04:44 55.17132 -2.16386 30154 ft 432 kts 114°
2026-04-24 04:45 55.15798 -2.11681 30517 ft 433 kts 114°
2026-04-24 04:45 55.14456 -2.06945 30810 ft 435 kts 114°
2026-04-24 04:45 55.13107 -2.02190 31090 ft 437 kts 114°
2026-04-24 04:45 55.11752 -1.97422 31365 ft 439 kts 114°
2026-04-24 04:46 55.10386 -1.92635 31637 ft 441 kts 114°
2026-04-24 04:46 55.09030 -1.87899 31898 ft 443 kts 114°
2026-04-24 04:46 55.07652 -1.83088 32233 ft 443 kts 114°
2026-04-24 04:46 55.06275 -1.78290 32618 ft 442 kts 114°
2026-04-24 04:47 55.04906 -1.73502 32991 ft 440 kts 112°
2026-04-24 04:47 55.03814 -1.68541 33349 ft 437 kts 104°
2026-04-24 04:47 55.03158 -1.63382 33701 ft 435 kts 98°
2026-04-24 04:47 55.02615 -1.58178 33953 ft 438 kts 100°
2026-04-24 04:48 55.02057 -1.52958 34221 ft 439 kts 101°
2026-04-24 04:48 55.01497 -1.47796 34528 ft 439 kts 101°
2026-04-24 04:48 55.00926 -1.42571 34829 ft 439 kts 101°
2026-04-24 04:48 55.00355 -1.37345 35126 ft 439 kts 101°
2026-04-24 04:49 54.99785 -1.32138 35412 ft 438 kts 101°
2026-04-24 04:49 54.99214 -1.26922 35680 ft 438 kts 101°
2026-04-24 04:49 54.98641 -1.21710 35947 ft 438 kts 101°
2026-04-24 04:49 54.98066 -1.16509 36216 ft 437 kts 101°
2026-04-24 04:50 54.97490 -1.11314 36483 ft 437 kts 101°
2026-04-24 04:50 54.96919 -1.06190 36733 ft 437 kts 102°
2026-04-24 04:50 54.96339 -1.01007 36957 ft 437 kts 102°
2026-04-24 04:50 54.95756 -0.95819 37181 ft 437 kts 102°
2026-04-24 04:51 54.95171 -0.90632 37383 ft 437 kts 102°
2026-04-24 04:51 54.94585 -0.85464 37435 ft 434 kts 102°
2026-04-24 04:51 54.93413 -0.75187 37433 ft 433 kts 102°
2026-04-24 04:52 54.92245 -0.65008 37436 ft 432 kts 102°
2026-04-24 04:52 54.91056 -0.54771 37436 ft 432 kts 102°
2026-04-24 04:53 54.89856 -0.44539 37433 ft 432 kts 102°
2026-04-24 04:53 54.88656 -0.34307 37440 ft 432 kts 102°
2026-04-24 04:54 54.87449 -0.24093 37437 ft 432 kts 103°
2026-04-24 04:54 54.86239 -0.13948 37440 ft 432 kts 103°
2026-04-24 04:55 54.85008 -0.03734 37440 ft 432 kts 103°
2026-04-24 04:55 54.83762 0.06466 37426 ft 432 kts 104°
2026-04-24 04:56 54.82517 0.16670 37427 ft 432 kts 104°
2026-04-24 04:56 54.81274 0.26799 37430 ft 433 kts 104°
2026-04-24 04:57 54.80011 0.36995 37430 ft 433 kts 104°
2026-04-24 04:57 54.78740 0.47187 37432 ft 433 kts 104°
2026-04-24 04:58 54.77459 0.57367 37423 ft 433 kts 105°
2026-04-24 04:58 54.76177 0.67478 37419 ft 433 kts 105°
2026-04-24 04:59 54.74875 0.77653 37420 ft 433 kts 105°
2026-04-24 04:59 54.73568 0.87827 37430 ft 433 kts 105°
2026-04-24 05:00 54.72257 0.97986 37433 ft 433 kts 105°
2026-04-24 05:00 54.70938 1.08060 37416 ft 432 kts 106°
2026-04-24 05:01 54.69605 1.18206 37415 ft 433 kts 106°
2026-04-24 05:01 54.68267 1.28354 37415 ft 433 kts 106°
2026-04-24 05:02 54.66914 1.38500 37416 ft 434 kts 107°
2026-04-24 05:02 54.65547 1.48647 37416 ft 434 kts 107°
2026-04-24 05:03 54.64189 1.58723 37417 ft 434 kts 107°
2026-04-24 05:03 54.62813 1.68871 37403 ft 434 kts 107°
2026-04-24 05:04 54.61418 1.79019 37407 ft 435 kts 107°
2026-04-24 05:04 54.60019 1.89183 37406 ft 436 kts 107°
2026-04-24 05:05 54.58609 1.99349 37409 ft 436 kts 107°
2026-04-24 05:05 54.57194 2.09452 37414 ft 436 kts 107°
2026-04-24 05:06 54.55773 2.19610 37397 ft 437 kts 108°
2026-04-24 05:06 54.54336 2.29790 37400 ft 438 kts 108°
2026-04-24 05:07 54.52878 2.39976 37394 ft 438 kts 108°
2026-04-24 05:07 54.51422 2.50098 37395 ft 439 kts 108°
2026-04-24 05:08 54.49954 2.60283 37397 ft 439 kts 108°
2026-04-24 05:08 54.48727 2.68749 37390 ft 439 kts 108°
2026-04-24 05:09 54.47234 2.78923 37381 ft 439 kts 108°
2026-04-24 05:09 54.45735 2.89109 37400 ft 440 kts 108°
2026-04-24 05:10 54.43989 3.00937 37393 ft 439 kts 109°
2026-04-24 05:10 54.42732 3.09382 37394 ft 439 kts 109°
2026-04-24 05:11 54.41202 3.19532 37398 ft 439 kts 109°
2026-04-24 05:11 54.39662 3.29680 37384 ft 440 kts 109°
2026-04-24 05:12 54.38131 3.39844 37382 ft 440 kts 109°
2026-04-24 05:12 54.36590 3.49945 37380 ft 441 kts 109°
2026-04-24 05:13 54.34243 3.65182 37370 ft 441 kts 109°
2026-04-24 05:14 54.32670 3.75337 37361 ft 441 kts 109°
2026-04-24 05:14 54.31085 3.85506 37358 ft 442 kts 109°
2026-04-24 05:15 54.29499 3.95617 37365 ft 443 kts 109°
2026-04-24 05:15 54.27892 4.05792 37350 ft 443 kts 109°
2026-04-24 05:16 54.26274 4.15982 37357 ft 444 kts 109°
2026-04-24 05:16 54.24646 4.26167 37344 ft 444 kts 109°
2026-04-24 05:17 54.23049 4.36292 37347 ft 445 kts 108°
2026-04-24 05:17 54.21544 4.46557 37342 ft 446 kts 107°
2026-04-24 05:18 54.20057 4.56838 37345 ft 446 kts 108°
2026-04-24 05:18 54.18537 4.67108 37342 ft 446 kts 108°
2026-04-24 05:19 54.16996 4.77369 37345 ft 446 kts 108°
2026-04-24 05:19 54.15457 4.87561 37350 ft 446 kts 108°
2026-04-24 05:20 54.13898 4.97806 37353 ft 446 kts 108°
2026-04-24 05:20 54.12333 5.08027 37361 ft 445 kts 108°
2026-04-24 05:21 54.10761 5.18235 37365 ft 445 kts 108°
2026-04-24 05:21 54.09186 5.28426 37349 ft 445 kts 108°
2026-04-24 05:22 54.07608 5.38536 37343 ft 445 kts 108°
2026-04-24 05:22 54.06008 5.48718 37342 ft 445 kts 109°
2026-04-24 05:23 54.04403 5.58901 37333 ft 446 kts 109°
2026-04-24 05:23 54.02797 5.69014 37336 ft 446 kts 109°
2026-04-24 05:24 54.01159 5.79178 37331 ft 446 kts 109°
2026-04-24 05:24 53.99520 5.89349 37322 ft 447 kts 109°
2026-04-24 05:25 53.97879 5.99541 37310 ft 447 kts 109°
2026-04-24 05:25 53.96227 6.09735 37312 ft 448 kts 109°
2026-04-24 05:26 53.94568 6.19861 37311 ft 448 kts 109°
2026-04-24 05:26 53.92887 6.30042 37313 ft 448 kts 109°
2026-04-24 05:27 53.91203 6.40242 37298 ft 449 kts 109°
2026-04-24 05:27 53.89506 6.50440 37298 ft 450 kts 109°
2026-04-24 05:28 53.87804 6.60578 37295 ft 450 kts 109°
2026-04-24 05:28 53.86080 6.70789 37168 ft 452 kts 109°
2026-04-24 05:28 53.85217 6.75897 36895 ft 451 kts 109°
2026-04-24 05:29 53.84353 6.81008 36636 ft 452 kts 109°
2026-04-24 05:29 53.83484 6.86131 36375 ft 454 kts 108°
2026-04-24 05:29 53.82607 6.91262 36109 ft 454 kts 109°
2026-04-24 05:29 53.81725 6.96383 35818 ft 452 kts 109°
2026-04-24 05:30 53.80860 7.01412 35297 ft 450 kts 108°
2026-04-24 05:30 53.79989 7.06481 34753 ft 448 kts 109°
2026-04-24 05:30 53.79118 7.11527 34188 ft 447 kts 108°
2026-04-24 05:30 53.78246 7.16560 33618 ft 444 kts 108°
2026-04-24 05:31 53.77377 7.21546 33091 ft 441 kts 109°
2026-04-24 05:31 53.76511 7.26498 32563 ft 438 kts 108°
2026-04-24 05:31 53.75650 7.31415 32041 ft 435 kts 108°
2026-04-24 05:31 53.74796 7.36298 31512 ft 432 kts 108°
2026-04-24 05:32 53.73948 7.41153 31008 ft 430 kts 107°
2026-04-24 05:32 53.73103 7.45969 30503 ft 427 kts 107°
2026-04-24 05:32 53.72266 7.50697 29990 ft 424 kts 107°
2026-04-24 05:32 53.71427 7.55436 29518 ft 419 kts 107°
2026-04-24 05:33 53.70597 7.60115 29052 ft 414 kts 107°
2026-04-24 05:33 53.69775 7.64733 28601 ft 409 kts 107°
2026-04-24 05:33 53.68959 7.69305 28158 ft 404 kts 107°
2026-04-24 05:34 53.67354 7.78292 27260 ft 396 kts 107°
2026-04-24 05:34 53.66554 7.82726 26793 ft 394 kts 107°
2026-04-24 05:34 53.65756 7.87124 26324 ft 391 kts 107°
2026-04-24 05:34 53.64975 7.91437 25862 ft 389 kts 107°
2026-04-24 05:35 53.64223 7.95808 25375 ft 388 kts 102°
2026-04-24 05:35 53.63866 8.00290 24908 ft 385 kts 91°
2026-04-24 05:35 53.63993 8.04772 24451 ft 382 kts 80°
2026-04-24 05:35 53.64539 8.09128 23997 ft 379 kts 75°
2026-04-24 05:36 53.65146 8.13439 23486 ft 377 kts 75°
2026-04-24 05:36 53.65742 8.17724 23023 ft 374 kts 75°
2026-04-24 05:36 53.66333 8.21985 22579 ft 371 kts 75°
2026-04-24 05:36 53.66916 8.26207 22133 ft 369 kts 75°
2026-04-24 05:37 53.67486 8.30344 21704 ft 366 kts 75°
2026-04-24 05:37 53.68058 8.34511 21289 ft 363 kts 75°
2026-04-24 05:37 53.68627 8.38655 20864 ft 361 kts 74°
2026-04-24 05:37 53.69191 8.42767 20430 ft 359 kts 74°
2026-04-24 05:38 53.69750 8.46867 20017 ft 357 kts 74°
2026-04-24 05:38 53.70305 8.50944 19603 ft 356 kts 74°
2026-04-24 05:38 53.70856 8.55008 19190 ft 354 kts 74°
2026-04-24 05:38 53.71402 8.59051 18776 ft 353 kts 74°
2026-04-24 05:39 53.71940 8.63035 18356 ft 352 kts 74°
2026-04-24 05:39 53.72481 8.67050 17929 ft 350 kts 74°
2026-04-24 05:39 53.73017 8.71034 17533 ft 347 kts 74°
2026-04-24 05:39 53.73550 8.74999 17135 ft 345 kts 74°
2026-04-24 05:40 53.74074 8.78933 16749 ft 342 kts 74°
2026-04-24 05:40 53.74592 8.82844 16366 ft 340 kts 74°
2026-04-24 05:40 53.75104 8.86733 15985 ft 338 kts 74°
2026-04-24 05:40 53.75616 8.90600 15618 ft 337 kts 73°
2026-04-24 05:41 53.76127 8.94455 15233 ft 335 kts 73°
2026-04-24 05:41 53.76635 8.98288 14854 ft 334 kts 73°
2026-04-24 05:41 53.77133 9.02062 14496 ft 332 kts 73°
2026-04-24 05:41 53.77628 9.05834 14239 ft 327 kts 73°
2026-04-24 05:42 53.78120 9.09585 13846 ft 326 kts 73°
2026-04-24 05:42 53.78606 9.13321 13439 ft 325 kts 73°
2026-04-24 05:42 53.79089 9.17042 13054 ft 323 kts 73°
2026-04-24 05:42 53.79570 9.20747 12641 ft 321 kts 73°
2026-04-24 05:43 53.80047 9.24433 12249 ft 320 kts 73°
2026-04-24 05:43 53.80521 9.28097 11841 ft 318 kts 73°
2026-04-24 05:43 53.80990 9.31746 11427 ft 317 kts 72°
2026-04-24 05:43 53.81446 9.35328 11061 ft 315 kts 72°
2026-04-24 05:44 53.81889 9.38910 10845 ft 307 kts 73°
2026-04-24 05:44 53.82311 9.42411 10606 ft 301 kts 73°
2026-04-24 05:44 53.82721 9.45845 10375 ft 295 kts 72°
2026-04-24 05:44 53.83126 9.49219 10131 ft 291 kts 72°
2026-04-24 05:45 53.83526 9.52553 9892 ft 288 kts 72°
2026-04-24 05:45 53.83924 9.55862 9649 ft 286 kts 72°
2026-04-24 05:45 53.84320 9.59158 9423 ft 285 kts 72°
2026-04-24 05:45 53.84714 9.62444 9196 ft 284 kts 72°
2026-04-24 05:46 53.85100 9.65672 8973 ft 283 kts 72°
2026-04-24 05:46 53.85485 9.68918 8766 ft 277 kts 72°
2026-04-24 05:46 53.85854 9.72055 8635 ft 266 kts 72°
2026-04-24 05:46 53.86207 9.75068 8509 ft 255 kts 72°
2026-04-24 05:47 53.86547 9.77966 8365 ft 247 kts 73°
2026-04-24 05:47 53.86671 9.80892 8253 ft 254 kts 88°
2026-04-24 05:47 53.86472 9.83876 8061 ft 254 kts 91°
2026-04-24 05:47 53.86260 9.86845 7867 ft 254 kts 91°
2026-04-24 05:48 53.86051 9.89769 7695 ft 253 kts 90°
2026-04-24 05:48 53.85843 9.92721 7514 ft 252 kts 90°
2026-04-24 05:48 53.85636 9.95658 7272 ft 250 kts 91°
2026-04-24 05:48 53.85430 9.98579 6962 ft 249 kts 91°
2026-04-24 05:49 53.85223 10.01476 6638 ft 247 kts 91°
2026-04-24 05:49 53.85015 10.04358 6306 ft 246 kts 91°
2026-04-24 05:49 53.84808 10.07211 5978 ft 244 kts 91°
2026-04-24 05:49 53.84601 10.10070 5649 ft 243 kts 91°
2026-04-24 05:50 53.84397 10.12896 5327 ft 241 kts 92°
2026-04-24 05:50 53.84204 10.15669 5010 ft 239 kts 89°
2026-04-24 05:50 53.84322 10.18421 4681 ft 231 kts 71°
2026-04-24 05:50 53.84887 10.20922 4344 ft 225 kts 56°
2026-04-24 05:51 53.85801 10.23024 4049 ft 220 kts 45°
2026-04-24 05:51 53.86789 10.25008 3992 ft 221 kts 46°
2026-04-24 05:51 53.87778 10.27015 3996 ft 222 kts 46°
2026-04-24 05:51 53.88760 10.29050 3994 ft 224 kts 51°
2026-04-24 05:52 53.89295 10.31536 3989 ft 232 kts 83°
2026-04-24 05:52 53.88943 10.34211 3987 ft 238 kts 116°
2026-04-24 05:52 53.87902 10.36365 3993 ft 241 kts 132°
2026-04-24 05:52 53.86640 10.38234 3988 ft 242 kts 144°
2026-04-24 05:53 53.85142 10.39560 3990 ft 244 kts 155°
2026-04-24 05:53 53.83514 10.40276 3976 ft 243 kts 185°
2026-04-24 05:53 53.81987 10.39263 3982 ft 237 kts 226°
2026-04-24 05:53 53.81194 10.36944 3990 ft 227 kts 259°
2026-04-24 05:54 53.80664 10.34413 3985 ft 234 kts 239°
2026-04-24 05:54 53.79556 10.32373 3981 ft 234 kts 231°
2026-04-24 05:54 53.78481 10.30325 3999 ft 232 kts 234°
2026-04-24 05:54 53.77470 10.28257 4001 ft 231 kts 235°
2026-04-24 05:55 53.76463 10.26188 3960 ft 223 kts 235°
2026-04-24 05:55 53.75488 10.24192 3757 ft 217 kts 235°
2026-04-24 05:55 53.74542 10.22255 3477 ft 210 kts 235°
2026-04-24 05:55 53.73626 10.20382 3188 ft 204 kts 236°
2026-04-24 05:56 53.72737 10.18566 2920 ft 198 kts 236°
2026-04-24 05:56 53.71872 10.16800 2654 ft 193 kts 236°
2026-04-24 05:56 53.71027 10.15075 2398 ft 189 kts 235°
2026-04-24 05:56 53.70220 10.13432 2149 ft 178 kts 236°
2026-04-24 05:57 53.69461 10.11889 1922 ft 164 kts 236°
2026-04-24 05:57 53.68755 10.10451 1722 ft 152 kts 237°
2026-04-24 05:57 53.68105 10.09130 1493 ft 141 kts 237°
2026-04-24 05:57 53.67488 10.07872 1298 ft 137 kts 237°
2026-04-24 05:58 53.66884 10.06640 1109 ft 135 kts 237°
2026-04-24 05:58 53.66284 10.05421 930 ft 133 kts 238°
2026-04-24 05:58 53.65703 10.04237 748 ft 131 kts 238°
2026-04-24 05:58 53.65129 10.03062 556 ft 128 kts 237°
2026-04-24 05:59 53.64568 10.01909 364 ft 128 kts 237°
2026-04-24 05:59 53.63998 10.00761 215 ft 128 kts 236°
2026-04-24 05:59 53.63422 9.99616 82 ft 127 kts 236°
2026-04-24 05:59 53.62935 9.98585 49 ft 90 kts 230°
2026-04-24 06:00 53.62641 9.98001 49 ft 43 kts 230°
2026-04-24 06:00 53.62513 9.97794 45 ft 21 kts 194°
2026-04-24 06:00 53.62430 9.97876 47 ft 11 kts 106°
2026-04-24 06:00 53.62436 9.97995 49 ft 10 kts 76°
2026-04-24 06:01 53.62467 9.98096 50 ft 12 kts 55°
2026-04-24 06:01 53.62512 9.98201 50 ft 11 kts 52°
2026-04-24 06:01 53.62559 9.98289 50 ft 10 kts 49°
2026-04-24 06:01 53.62600 9.98371 51 ft 9 kts 50°
2026-04-24 06:02 53.62647 9.98466 51 ft 14 kts 51°
2026-04-24 06:02 53.62710 9.98593 51 ft 14 kts 50°
2026-04-24 06:02 53.62767 9.98712 50 ft 13 kts 51°
2026-04-24 06:02 53.62826 9.98835 50 ft 16 kts 49°
2026-04-24 06:03 53.62909 9.99000 50 ft 20 kts 50°
2026-04-24 06:03 53.62998 9.99177 50 ft 19 kts 50°
2026-04-24 06:03 53.63074 9.99344 50 ft 17 kts 55°
2026-04-24 06:03 53.63139 9.99503 48 ft 16 kts 56°
2026-04-24 06:04 53.63207 9.99645 50 ft 15 kts 48°
2026-04-24 06:04 53.63274 9.99758 50 ft 13 kts 46°
2026-04-24 06:04 53.63330 9.99870 50 ft 12 kts 51°
2026-04-24 06:04 53.63380 9.99973 51 ft 12 kts 49°
2026-04-24 06:05 53.63427 10.00085 51 ft 11 kts 76°
2026-04-24 06:05 53.63397 10.00183 51 ft 9 kts 148°
2026-04-24 06:05 53.63336 10.00201 48 ft 9 kts 176°
2026-04-24 06:05 53.63279 10.00206 51 ft 8 kts 176°
2026-04-24 06:06 53.63230 10.00210 51 ft 4 kts 177°
2026-04-24 06:06 53.63198 10.00224 50 ft 5 kts 138°
2026-04-24 06:06 53.63193 10.00274 51 ft 4 kts 92°
2026-04-24 06:06 53.63194 10.00316 51 ft 3 kts 86°
2026-04-24 06:07 53.63195 10.00347 51 ft 2 kts 86°
2026-04-24 06:07 53.63196 10.00368 51 ft 1 kts 87°
2026-04-24 06:07 53.63196 10.00376 51 ft 1 kts 87°